This demonstration page uses our WeatherBlox Daily Observations layout. Learn more.

Left ArrowRight Arrow

30.21309, -93.2044

Hourly Observations for July 16, 2021

Temp ( °F °C ) Dew Point ( °F °C ) Humidity (%) Winds ( mph kmh ) Pressure ( in mb ) Visibility ( mi km ) Precip ( " mm )
12:15 am 00:15 Cloudy 78 25.7 74 23.4 87 87 S 3 6 30.05 1018 10 16 0.00 0.00
12:55 am 00:55 Clear 77 25 74 23.4 91 91 S 5 7 30.05 1018 10 16 0.00 0.00
1:15 am 01:15 Partly Cloudy 77 25.1 74 23.5 91 91 S 5 7 30.05 1018 10 16 0.00 0.00
1:35 am 01:35 Partly Cloudy 77 24.9 74 23.6 93 93 SE 6 9 30.04 1017 10 16 0.00 0.00
1:55 am 01:55 Clear 77 25.2 74 23.6 91 91 S 5 7 30.04 1017 10 16 0.00 0.00
2:15 am 02:15 Clear 77 24.9 74 23.6 93 93 SSE 7 11 30.04 1017 10 16 0.00 0.00
2:35 am 02:35 Clear 77 25 74 23.5 91 91 SSE 6 9 30.04 1017 10 16 0.00 0.00
2:55 am 02:55 Clear 77 25.1 74 23.5 91 91 S 6 9 30.03 1017 10 16 0.00 0.00
3:15 am 03:15 Clear 77 24.8 74 23.3 91 91 S 5 7 30.03 1017 10 16 0.00 0.00
3:35 am 03:35 Partly Cloudy 76 24.7 74 23.3 92 92 SSE 6 9 30.03 1017 10 16 0.00 0.00
3:55 am 03:55 Partly Cloudy 77 24.9 74 23.3 91 91 SSE 5 7 30.03 1017 10 16 0.00 0.00
4:15 am 04:15 Clear 78 25.3 74 23.5 90 90 Calm 30.03 1017 10 16 0.00 0.00
4:35 am 04:35 Partly Cloudy 78 25.5 74 23.6 89 89 Calm 30.04 1017 10 16 0.00 0.00
4:55 am 04:55 Mostly Cloudy 77 25.2 75 23.9 93 93 Calm 30.04 1017 10 16 0.00 0.00
5:15 am 05:15 Mostly Cloudy 77 25.2 75 23.9 93 93 ESE 3 6 30.04 1017 10 16 0.00 0.00
5:35 am 05:35 Partly Cloudy 77 25 75 23.9 94 94 Calm 30.05 1018 10 16 0.00 0.00
6:00 am 06:00 Mostly Cloudy 77 25 75 24 94 94 E 6 9 30.05 1018 10 16 0.00 0.00
6:47 am 06:47 Partly Cloudy 77 25 75 24 94 94 E 6 9 30.06 1018 10 16 0.00 0.00
7:55 am 07:55 Partly Cloudy 81 27 75 24 84 84 SSE 8 13 30.07 1018 10 16 0.00 0.00
8:53 am 08:53 Partly Cloudy 84 29 77 25 79 79 S 8 13 30.08 1019 10 16 0.00 0.00
9:35 am 09:35 Mostly Cloudy with Thunderstorms 84 29 73 23 70 70 S 20 31 30.09 1019 3 5 0.00 0.00
9:55 am 09:55 Cloudy with Thunderstorms 75 24 72 22 89 89 WSW 12 19 30.09 1019 2 3 0.00 0.00
10:45 am 10:45 Cloudy with Thunderstorms 79 26 73 23 84 84 Calm 30.09 1019 10 16 0.00 0.00
11:49 am 11:49 Mostly Cloudy 79 26 73 23 84 84 Calm 30.09 1019 10 16 0.00 0.00
12:51 pm 12:51 Partly Cloudy 81 27 73 23 79 79 Calm 30.07 1018 10 16 0.00 0.00
1:47 pm 13:47 Partly Cloudy 84 29 77 25 79 79 S 8 13 30.05 1018 10 16 0.00 0.00
2:50 pm 14:50 Partly Cloudy 88 31 77 25 70 70 S 7 11 30.04 1017 10 16 0.00 0.00
3:50 pm 15:50 Partly Cloudy 88 31 75 24 66 66 S 9 15 30.02 1017 10 16 0.00 0.00
4:50 pm 16:50 Mostly Cloudy 88 31 75 24 66 66 SSW 9 15 30.01 1016 10 16 0.00 0.00
5:50 pm 17:50 Mostly Cloudy with Thunderstorms 81 27 75 24 84 84 E 6 9 30.02 1017 10 16 0.00 0.00
6:55 pm 18:55 Cloudy with Thunderstorms 79 26 73 23 84 84 ENE 5 7 30.03 1017 10 16 0.00 0.00
7:50 pm 19:50 Cloudy with Light Rain 79 26 75 24 89 89 Calm 30.04 1017 10 16 0.00 0.00
8:50 pm 20:50 Partly Cloudy 79 26 75 24 89 89 E 6 9 30.03 1017 10 16 0.00 0.00
9:50 pm 21:50 Mostly Clear 79 26 77 25 94 94 ESE 6 9 30.04 1017 10 16 0.00 0.00
10:15 pm 22:15 Clear 79 26.2 77 24.8 92 92 ESE 6 9 30.04 1017 10 16 0.00 0.00
10:35 pm 22:35 Clear 79 25.9 76 24.7 93 93 ESE 7 11 30.04 1017 10 16 0.00 0.00
10:55 pm 22:55 Clear 78 25.7 76 24.3 92 92 ESE 6 9 30.04 1017 10 16 0.00 0.00
11:15 pm 23:15 Clear 78 25.5 76 24.3 93 93 E 5 7 30.04 1017 10 16 0.00 0.00
11:35 pm 23:35 Clear 77 25.2 75 24.1 94 94 E 5 7 30.05 1018 10 16 0.00 0.00
11:55 pm 23:55 Clear 77 25.1 75 24.1 94 94 Calm 30.05 1018 10 16 0.00 0.00

Powered by AerisWeather